• In Hungary
  • List of Countries
  • For 7 days
  • Water Temperature
  • Satellite Maps
  • Weather Map
  • News
  • Weather Widgets
  • user-avatar
    Login

    Hourly Weather Kyrdzhali

    Today, 17 August, Friday

    Time Temperature Precipitation Wind Pressure Humidity
    00:00 +21°C° 0 mm 2 mps 725 mmHg 55%
    01:00 +21°C° 0 mm 3 mps 725 mmHg 57%
    02:00 +20°C° 0 mm 3 mps 724 mmHg 60%
    03:00 +20°C° 0 mm 3 mps 724 mmHg 60%
    04:00 +20°C° 0 mm 3 mps 724 mmHg 60%
    05:00 +19°C° 0 mm 3 mps 724 mmHg 60%
    06:00 +21°C° 0 mm 3 mps 725 mmHg 55%
    07:00 +23°C° 0 mm 4 mps 725 mmHg 49%
    08:00 +26°C° 0 mm 5 mps 725 mmHg 43%
    09:00 +28°C° 0 mm 5 mps 725 mmHg 39%
    10:00 +30°C° 0 mm 5 mps 726 mmHg 35%
    11:00 +33°C° 0 mm 5 mps 726 mmHg 31%
    12:00 +33°C° 0 mm 5 mps 726 mmHg 29%
    13:00 +34°C° 0 mm 5 mps 725 mmHg 28%
    14:00 +34°C° 0 mm 5 mps 725 mmHg 30%
    15:00 +33°C° 0 mm 4 mps 725 mmHg 31%
    16:00 +33°C° 0 mm 4 mps 725 mmHg 33%
    17:00 +32°C° 0 mm 4 mps 725 mmHg 35%
    18:00 +29°C° 0 mm 3 mps 725 mmHg 39%
    19:00 +28°C° 0 mm 3 mps 725 mmHg 43%
    20:00 +26°C° 0 mm 3 mps 725 mmHg 48%
    21:00 +25°C° 0 mm 3 mps 725 mmHg 51%
    22:00 +24°C° 0 mm 3 mps 725 mmHg 55%
    23:00 +22°C° 0 mm 3 mps 725 mmHg 59%

    Tomorrow, 18 August, Saturday

    Time Temperature Precipitation Wind Pressure Humidity
    00:00 +21°C° 0 mm 3 mps 725 mmHg 61%
    01:00 +21°C° 0 mm 3 mps 725 mmHg 63%
    02:00 +20°C° 0 mm 3 mps 725 mmHg 65%
    03:00 +20°C° 0 mm 3 mps 726 mmHg 66%
    04:00 +20°C° 0 mm 3 mps 726 mmHg 66%
    05:00 +20°C° 0 mm 3 mps 726 mmHg 66%
    06:00 +22°C° 0 mm 3 mps 726 mmHg 59%
    07:00 +25°C° 0 mm 4 mps 726 mmHg 52%
    08:00 +26°C° 0 mm 4 mps 726 mmHg 46%
    09:00 +28°C° 0 mm 5 mps 727 mmHg 40%
    10:00 +30°C° 0 mm 6 mps 727 mmHg 34%
    11:00 +33°C° 0 mm 6 mps 727 mmHg 28%
    12:00 +34°C° 0 mm 6 mps 727 mmHg 28%
    13:00 +35°C° 0 mm 7 mps 727 mmHg 27%
    14:00 +35°C° 0 mm 7 mps 726 mmHg 26%
    15:00 +34°C° 0 mm 7 mps 726 mmHg 28%
    16:00 +34°C° 0 mm 6 mps 726 mmHg 30%
    17:00 +33°C° 0 mm 6 mps 726 mmHg 31%
    18:00 +30°C° 0 mm 5 mps 726 mmHg 36%
    19:00 +29°C° 0 mm 4 mps 726 mmHg 40%
    20:00 +27°C° 0 mm 4 mps 726 mmHg 45%
    21:00 +26°C° 0 mm 3 mps 727 mmHg 48%
    22:00 +25°C° 0 mm 3 mps 727 mmHg 52%
    23:00 +24°C° 0 mm 3 mps 727 mmHg 56%

    Day after tomorrow, 19 August, Sunday

    Time Temperature Precipitation Wind Pressure Humidity
    00:00 +22°C° 0 mm 3 mps 727 mmHg 58%
    01:00 +21°C° 0 mm 3 mps 727 mmHg 59%
    02:00 +21°C° 0 mm 3 mps 727 mmHg 61%
    03:00 +20°C° 0 mm 3 mps 727 mmHg 61%
    04:00 +20°C° 0 mm 3 mps 727 mmHg 61%
    05:00 +20°C° 0 mm 3 mps 727 mmHg 62%
    06:00 +22°C° 0 mm 3 mps 727 mmHg 55%
    07:00 +25°C° 0 mm 4 mps 727 mmHg 49%
    08:00 +27°C° 0 mm 4 mps 728 mmHg 42%
    09:00 +28°C° 0 mm 5 mps 728 mmHg 37%
    10:00 +30°C° 0 mm 5 mps 728 mmHg 32%
    11:00 +33°C° 0 mm 6 mps 728 mmHg 27%
    12:00 +34°C° 0 mm 6 mps 728 mmHg 26%
    13:00 +35°C° 0 mm 6 mps 728 mmHg 25%
    14:00 +35°C° 0 mm 6 mps 727 mmHg 24%
    15:00 +34°C° 0 mm 6 mps 727 mmHg 26%
    16:00 +34°C° 0 mm 6 mps 727 mmHg 28%
    17:00 +33°C° 0 mm 5 mps 726 mmHg 29%
    18:00 +30°C° 0 mm 5 mps 726 mmHg 33%
    19:00 +28°C° 0 mm 4 mps 726 mmHg 37%
    20:00 +26°C° 0 mm 3 mps 726 mmHg 41%
    21:00 +25°C° 0 mm 3 mps 727 mmHg 45%
    22:00 +24°C° 0 mm 3 mps 727 mmHg 49%
    23:00 +23°C° 0 mm 2 mps 727 mmHg 53%

    20 August, Monday

    Time Temperature Precipitation Wind Pressure Humidity
    00:00 +21°C° 0 mm 2 mps 726 mmHg 57%
    01:00 +21°C° 0 mm 2 mps 726 mmHg 62%
    02:00 +20°C° 0 mm 3 mps 726 mmHg 66%
    03:00 +20°C° 0 mm 3 mps 726 mmHg 70%
    04:00 +19°C° 0 mm 3 mps 726 mmHg 74%
    05:00 +19°C° 0 mm 3 mps 726 mmHg 78%
    06:00 +20°C° 0 mm 3 mps 726 mmHg 71%
    07:00 +22°C° 0 mm 4 mps 726 mmHg 64%
    08:00 +23°C° 0 mm 5 mps 726 mmHg 57%
    09:00 +26°C° 0 mm 5 mps 727 mmHg 49%
    10:00 +28°C° 0 mm 5 mps 727 mmHg 41%
    11:00 +29°C° 0 mm 6 mps 727 mmHg 33%
    12:00 +30°C° 0 mm 6 mps 727 mmHg 30%
    13:00 +32°C° 0 mm 6 mps 726 mmHg 28%
    14:00 +33°C° 0 mm 6 mps 726 mmHg 25%
    15:00 +33°C° 0 mm 6 mps 726 mmHg 25%
    16:00 +32°C° 0 mm 6 mps 726 mmHg 25%
    17:00 +32°C° 0 mm 6 mps 726 mmHg 26%
    18:00 +29°C° 0 mm 5 mps 726 mmHg 31%
    19:00 +26°C° 0 mm 5 mps 726 mmHg 37%
    20:00 +23°C° 0 mm 4 mps 726 mmHg 42%
    21:00 +22°C° 0 mm 4 mps 726 mmHg 50%
    22:00 +20°C° 0 mm 3 mps 726 mmHg 58%
    23:00 +19°C° 0 mm 3 mps 726 mmHg 66%

    21 August, Tuesday

    Time Temperature Precipitation Wind Pressure Humidity
    00:00 +18°C° 0 mm 3 mps 726 mmHg 70%
    01:00 +18°C° 0 mm 3 mps 726 mmHg 74%
    02:00 +17°C° 0 mm 3 mps 726 mmHg 77%
    03:00 +17°C° 0 mm 3 mps 726 mmHg 78%
    04:00 +16°C° 0 mm 3 mps 726 mmHg 78%
    05:00 +16°C° 0 mm 3 mps 726 mmHg 79%
    06:00 +18°C° 0 mm 3 mps 726 mmHg 70%
    07:00 +20°C° 0 mm 3 mps 727 mmHg 62%
    08:00 +22°C° 0 mm 3 mps 727 mmHg 53%
    09:00 +25°C° 0 mm 4 mps 727 mmHg 46%
    10:00 +26°C° 0 mm 4 mps 727 mmHg 38%
    11:00 +28°C° 0 mm 4 mps 728 mmHg 31%
    12:00 +29°C° 0 mm 4 mps 727 mmHg 28%
    13:00 +32°C° 0 mm 4 mps 727 mmHg 25%
    14:00 +33°C° 0 mm 5 mps 727 mmHg 22%
    15:00 +33°C° 0 mm 4 mps 727 mmHg 23%
    16:00 +33°C° 0 mm 4 mps 727 mmHg 23%
    17:00 +32°C° 0 mm 4 mps 727 mmHg 24%
    18:00 +29°C° 0 mm 4 mps 727 mmHg 29%
    19:00 +26°C° 0 mm 3 mps 727 mmHg 34%
    20:00 +24°C° 0 mm 3 mps 727 mmHg 40%
    21:00 +22°C° 0 mm 3 mps 727 mmHg 45%
    22:00 +21°C° 0 mm 2 mps 727 mmHg 50%
    23:00 +19°C° 0 mm 2 mps 727 mmHg 55%

    22 August, Wednesday

    Time Temperature Precipitation Wind Pressure Humidity
    00:00 +19°C° 0 mm 2 mps 727 mmHg 59%
    01:00 +18°C° 0 mm 2 mps 727 mmHg 62%
    02:00 +18°C° 0 mm 2 mps 727 mmHg 65%
    03:00 +18°C° 0 mm 2 mps 727 mmHg 67%
    04:00 +17°C° 0 mm 2 mps 727 mmHg 69%
    05:00 +17°C° 0 mm 3 mps 727 mmHg 71%
    06:00 +19°C° 0 mm 3 mps 727 mmHg 63%
    07:00 +21°C° 0 mm 3 mps 727 mmHg 56%
    08:00 +24°C° 0 mm 3 mps 728 mmHg 49%
    09:00 +26°C° 0 mm 3 mps 728 mmHg 42%
    10:00 +28°C° 0 mm 3 mps 728 mmHg 36%
    11:00 +29°C° 0 mm 4 mps 728 mmHg 29%
    12:00 +32°C° 0 mm 4 mps 728 mmHg 26%
    13:00 +33°C° 0 mm 4 mps 727 mmHg 24%
    14:00 +34°C° 0 mm 4 mps 727 mmHg 21%
    15:00 +34°C° 0 mm 4 mps 727 mmHg 21%
    16:00 +33°C° 0 mm 4 mps 727 mmHg 21%
    17:00 +33°C° 0 mm 4 mps 727 mmHg 20%
    18:00 +30°C° 0 mm 4 mps 727 mmHg 25%
    19:00 +27°C° 0 mm 3 mps 726 mmHg 29%
    20:00 +25°C° 0 mm 3 mps 726 mmHg 33%
    21:00 +22°C° 0 mm 3 mps 726 mmHg 40%
    22:00 +21°C° 0 mm 2 mps 726 mmHg 46%
    23:00 +20°C° 0 mm 2 mps 726 mmHg 53%
    Show more